User: anonymous   Login
Location: Hurstbourne Priors
(51.2000°N, 1.3667°W)
Time: 23:48:57
(UTC+00:00)
Language:

SL-16 R/B - Orbit

View from above orbital plane
View from above orbital plane
View from above satellite
View from above satellite

Ground track
Ground track

The orbit data is extracted from the following two-line orbital elements,

1 27006U 01056F   20188.34959512 -.00000047 +00000-0 -24407-5 0  9999
2 27006 099.4753 319.4998 0013846 293.3343 119.9380 13.70965747929219
Epoch (UTC): 06 July 2020 08:23:25
Eccentricity: 0.0013846
inclination: 99.4753°
perigee height: 986 km
apogee height: 1006 km
right ascension of ascending node: 319.4998°
argument of perigee: 293.3343°
revolutions per day: 13.70965747
mean anomaly at epoch: 119.9380°
orbit number at epoch: 92921

The dashed part of the orbit path shows where the satellite is in the earth's shadow,  

DLR